{"data":{"norad_id":58280,"epoch":"2026-05-25T04:39:14.597280Z","epoch_age_seconds":58003,"freshness":"FRESH","line1":"1 58280U 23174AA  26145.19391895  .00029925  00000+0  47407-3 0  9994","line2":"2 58280  97.3880 235.6571 0005183 210.4516 149.6437 15.53356108142171","mean_motion":15.53356108,"eccentricity":0.0005183,"inclination_deg":97.388,"raan_deg":235.6571,"arg_perigee_deg":210.4516,"mean_anomaly_deg":149.6437,"bstar":0.00047407,"rev_number":14217,"period_min":92.70250347514,"perigee_km":403.41873124714,"apogee_km":410.45213733252,"semimajor_km":6785.0724342898,"source":"CELESTRAK","updated_at":"2026-05-25T13:38:13.298321Z"}}